Torna al catalogo

FENGYUN 1C DEB

AttivoLEO
NORAD 31010·DEBRIS·🇨🇳 China

Lanciato May 10, 1999 da Taiyuan Satellite Launch Center

Loading…

Prossimi Passaggi (prossime 24 ore)

TLE

AggiornatoSource: Space-Track

Epoca: Sep 13, 2026, 11:22 UTC

1 31010U 99025BDC 26256.47420611  .00005416  00000-0  20006-2 0  9992
2 31010 101.7187 141.8669 0107384 357.3734   2.6860 14.29893653995513

Traccia FENGYUN 1C DEB in tempo reale con AllMySat

Download on the App Store